Location: Mount Cross
(36.6390°N, 79.4878°W)
Time: 08:05:31
(UTC+00:00)

Vanguard 1 Rocket - Pass Details

Date: 05 April 2023
Orbit: 654 x 4221 km, 34.3° (Epoch: 01 June)

Event Time Altitude Azimuth Distance (km) Brightness Sun altitude
Rises 05:09:37 0° 277° (W) 8,457 12.4 -47.3°
Reaches altitude 10° 05:15:46 10° 277° (W) 7,306 12.0 -47.4°
Enters shadow 05:34:08 57° 262° (W) 3,687 10.1 -47.3°
Maximum altitude 05:39:30 75° 197° (SSW) 2,995 - -47.2°
Drops below altitude 10° 05:52:15 10° 114° (ESE) 4,279 - -46.7°
Sets 05:54:50 0° 113° (ESE) 4,936 - -46.6°
